CHINASAT 6A

导读

CHINASAT 6A(中星6A)是中国于2010年9月4日成功发射的地球静止轨道通信卫星,由中国航天科技集团研制。该卫星主要承担广播电视传输、通信保障任务,可为国内中央及地方媒体提供稳定的广播电视信号传输服务,同时支持通信、远程教育等多种应用,进一步完善了我国空间通信基础设施,满足了广播电视与通信业务的发展需求,提升了卫星通信覆盖能力与服务可靠性,在我国广电传输与通信领域发挥着重要作用。

基本信息
目录编号:
37150
目录名称:
CHINASAT 6A
国际标识:
2010-042A
轨道中心:
EARTH
卫星名称:
CHINASAT 6A
卫星全名:
--
卫星状态:
在轨 (已飞行5769 天)
发射日期:
2010-09-04 UTC
国别 :
中国 (CN)
星等 :
--
轨道信息
数据来源 国际轨道数据 AOE轨道数据
星历时间 2026-06-20T14:26:39+0800
20小时前
查看轨道信息
2026-06-21T06:00:00+0800
4小时前
查看轨道信息
半长轴 42326.668km 42326.554km
偏心率 0.0001656 0.0001776
轨道倾角 4.235° 4.237°
近地点辐角 298.717° 301.723°
升交点赤经 77.191° 77.181°
平近点角 30.494° 260.136°
近地点 35941.521km 35940.899km
远地点 35955.541km 35955.935km
周期 1444.378分钟 1444.372分钟
每日圈数 0.996969 0.996973
详细信息
使用方式:
暂无
2D轨道图
3D轨道图
轨道高度分析图
轨道倾角分析图
轨道综合分析图
查看轨道综合分析图